TimeCST,TemperatureF,Dew PointF,Humidity,Sea Level PressureIn,VisibilityMPH,Wind Direction,Wind SpeedMPH,Gust SpeedMPH,PrecipitationIn,Events,Conditions,WindDirDegrees,DateUTC
12:15 AM,28.4,24.8,86,30.14,10.0,ENE,10.4,20.7,N/A,,Overcast,70,2012-11-09 06:15:00
12:35 AM,28.4,24.8,86,30.14,10.0,ENE,13.8,21.9,N/A,,Overcast,70,2012-11-09 06:35:00
12:55 AM,26.6,24.8,93,30.14,10.0,ENE,16.1,23.0,N/A,,Overcast,70,2012-11-09 06:55:00
1:15 AM,26.6,24.8,93,30.15,10.0,East,13.8,25.3,N/A,,Overcast,80,2012-11-09 07:15:00
1:35 AM,26.6,23.0,86,30.14,10.0,ENE,13.8,21.9,N/A,,Overcast,70,2012-11-09 07:35:00
1:55 AM,26.6,23.0,86,30.13,10.0,East,13.8,21.9,N/A,,Overcast,80,2012-11-09 07:55:00
2:15 AM,26.6,23.0,86,30.13,10.0,ENE,15.0,23.0,N/A,,Overcast,70,2012-11-09 08:15:00
2:35 AM,26.6,23.0,86,30.12,10.0,East,16.1,24.2,N/A,,Overcast,80,2012-11-09 08:35:00
2:55 AM,26.6,23.0,86,30.11,10.0,East,15.0,25.3,N/A,,Overcast,80,2012-11-09 08:55:00
3:15 AM,26.6,23.0,86,30.11,10.0,ENE,16.1,23.0,N/A,,Overcast,70,2012-11-09 09:15:00
3:35 AM,26.6,23.0,86,30.11,10.0,East,12.7,25.3,N/A,,Overcast,90,2012-11-09 09:35:00
3:55 AM,26.6,23.0,86,30.10,10.0,East,13.8,20.7,N/A,,Overcast,80,2012-11-09 09:55:00
4:15 AM,26.6,23.0,86,30.10,10.0,East,18.4,24.2,N/A,,Overcast,80,2012-11-09 10:15:00
4:35 AM,26.6,23.0,86,30.09,10.0,ENE,17.3,25.3,N/A,,Overcast,70,2012-11-09 10:35:00
4:55 AM,26.6,23.0,86,30.09,10.0,East,17.3,24.2,N/A,,Overcast,80,2012-11-09 10:55:00
5:15 AM,26.6,23.0,86,30.09,10.0,ENE,15.0,21.9,N/A,,Overcast,70,2012-11-09 11:15:00
5:35 AM,26.6,23.0,86,30.09,10.0,East,17.3,24.2,N/A,,Overcast,80,2012-11-09 11:35:00
5:55 AM,26.6,23.0,86,30.08,10.0,East,17.3,23.0,N/A,,Overcast,90,2012-11-09 11:55:00
6:15 AM,26.6,23.0,86,30.08,10.0,East,13.8,25.3,N/A,,Overcast,90,2012-11-09 12:15:00
6:35 AM,26.6,23.0,86,30.07,10.0,East,15.0,24.2,N/A,,Overcast,80,2012-11-09 12:35:00
6:55 AM,26.6,23.0,86,30.07,10.0,East,17.3,23.0,N/A,,Overcast,80,2012-11-09 12:55:00
7:15 AM,26.6,23.0,86,30.06,10.0,East,16.1,23.0,N/A,,Overcast,80,2012-11-09 13:15:00
7:35 AM,26.6,23.0,86,30.06,10.0,East,12.7,24.2,N/A,,Overcast,90,2012-11-09 13:35:00
7:55 AM,26.6,23.0,86,30.08,10.0,East,13.8,20.7,N/A,,Overcast,90,2012-11-09 13:55:00
8:15 AM,26.6,23.0,86,30.07,10.0,East,15.0,20.7,N/A,,Overcast,80,2012-11-09 14:15:00
8:55 AM,26.6,24.8,93,30.06,7.0,East,17.3,24.2,N/A,,Overcast,80,2012-11-09 14:55:00
9:15 AM,26.6,24.8,93,30.06,3.0,East,17.3,23.0,N/A,,Overcast,80,2012-11-09 15:15:00
9:35 AM,26.6,24.8,93,30.05,1.8,East,13.8,28.8,N/A,,Overcast,90,2012-11-09 15:35:00
9:55 AM,26.6,24.8,93,30.05,3.0,East,19.6,24.2,N/A,,Overcast,80,2012-11-09 15:55:00
10:15 AM,26.6,24.8,93,30.05,2.0,East,15.0,23.0,N/A,,Overcast,80,2012-11-09 16:15:00
10:35 AM,26.6,24.8,93,30.04,2.5,East,18.4,24.2,N/A,,Mostly Cloudy,90,2012-11-09 16:35:00
10:55 AM,26.6,24.8,93,30.05,4.0,East,17.3,25.3,N/A,,Mostly Cloudy,100,2012-11-09 16:55:00
11:15 AM,26.6,24.8,93,30.04,3.0,East,17.3,25.3,N/A,,Overcast,80,2012-11-09 17:15:00
11:35 AM,26.6,24.8,93,30.04,4.0,East,16.1,21.9,N/A,,Overcast,80,2012-11-09 17:35:00
11:55 AM,26.6,24.8,93,30.04,4.0,East,13.8,21.9,N/A,,Overcast,80,2012-11-09 17:55:00
12:15 PM,26.6,24.8,93,30.02,5.0,ENE,15.0,24.2,N/A,,Overcast,70,2012-11-09 18:15:00
12:35 PM,26.6,24.8,93,30.01,5.0,East,15.0,28.8,N/A,,Overcast,80,2012-11-09 18:35:00
12:55 PM,26.6,24.8,93,30.00,5.0,East,15.0,27.6,N/A,,Overcast,80,2012-11-09 18:55:00
1:15 PM,26.6,24.8,93,30.00,4.0,East,18.4,25.3,N/A,,Overcast,80,2012-11-09 19:15:00
1:35 PM,26.6,24.8,93,29.98,3.0,ENE,18.4,26.5,N/A,,Overcast,70,2012-11-09 19:35:00
1:55 PM,26.6,24.8,93,29.98,3.0,East,17.3,24.2,N/A,,Mostly Cloudy,80,2012-11-09 19:55:00
2:15 PM,26.6,24.8,93,29.98,3.0,East,17.3,26.5,N/A,,Partly Cloudy,80,2012-11-09 20:15:00
2:35 PM,26.6,24.8,93,29.97,3.0,East,19.6,26.5,N/A,,Clear,80,2012-11-09 20:35:00
2:55 PM,26.6,24.8,93,29.96,2.5,East,18.4,27.6,N/A,,Partly Cloudy,80,2012-11-09 20:55:00
3:15 PM,26.6,24.8,93,29.96,3.0,East,20.7,26.5,N/A,,Partly Cloudy,80,2012-11-09 21:15:00
3:35 PM,26.6,24.8,93,29.96,3.0,East,16.1,26.5,N/A,,Partly Cloudy,80,2012-11-09 21:35:00
3:55 PM,26.6,24.8,93,29.96,3.0,East,16.1,26.5,N/A,,Partly Cloudy,80,2012-11-09 21:55:00
4:15 PM,26.6,24.8,93,29.96,3.0,East,18.4,24.2,N/A,,Partly Cloudy,80,2012-11-09 22:15:00
4:35 PM,24.8,23.0,93,29.94,4.0,ENE,17.3,24.2,N/A,,Scattered Clouds,70,2012-11-09 22:35:00
4:55 PM,24.8,23.0,93,29.94,4.0,ENE,23.0,29.9,N/A,,Partly Cloudy,70,2012-11-09 22:55:00
5:15 PM,24.8,23.0,93,29.95,5.0,East,16.1,29.9,N/A,,Clear,80,2012-11-09 23:15:00
5:35 PM,24.8,21.2,86,29.94,6.0,North,-9999.0,-,N/A,,Clear,0,2012-11-09 23:35:00
5:55 PM,24.8,21.2,86,29.94,5.0,ENE,19.6,28.8,N/A,,Clear,70,2012-11-09 23:55:00
6:15 PM,24.8,21.2,86,29.95,5.0,East,12.7,26.5,N/A,,Clear,80,2012-11-10 00:15:00
6:35 PM,24.8,21.2,86,29.94,7.0,East,15.0,23.0,N/A,,Clear,80,2012-11-10 00:35:00
6:55 PM,24.8,21.2,86,29.94,5.0,East,17.3,25.3,N/A,,Mostly Cloudy,80,2012-11-10 00:55:00
7:15 PM,24.8,21.2,86,29.94,5.0,ENE,13.8,25.3,N/A,,Overcast,70,2012-11-10 01:15:00
7:35 PM,23.0,21.2,93,29.94,5.0,East,15.0,24.2,N/A,,Overcast,80,2012-11-10 01:35:00
7:55 PM,24.8,21.2,86,29.93,8.0,East,18.4,26.5,N/A,,Overcast,80,2012-11-10 01:55:00
8:15 PM,24.8,21.2,86,29.92,5.0,East,13.8,20.7,N/A,,Overcast,80,2012-11-10 02:15:00
8:35 PM,24.8,23.0,93,29.92,4.0,East,16.1,23.0,N/A,,Overcast,80,2012-11-10 02:35:00
8:55 PM,24.8,23.0,93,29.92,3.0,East,13.8,23.0,N/A,,Overcast,80,2012-11-10 02:55:00
9:15 PM,24.8,23.0,93,29.92,3.0,ENE,15.0,19.6,N/A,,Mostly Cloudy,70,2012-11-10 03:15:00
9:35 PM,24.8,23.0,93,29.94,2.5,North,-9999.0,-,N/A,,Partly Cloudy,0,2012-11-10 03:35:00
9:55 PM,24.8,23.0,93,29.93,3.0,North,-9999.0,-,N/A,,Clear,0,2012-11-10 03:55:00
10:15 PM,24.8,23.0,93,29.90,3.0,East,19.6,25.3,N/A,,Clear,80,2012-11-10 04:15:00
10:35 PM,24.8,23.0,93,29.88,3.0,East,21.9,27.6,N/A,,Clear,80,2012-11-10 04:35:00
10:55 PM,24.8,23.0,93,29.88,3.0,East,12.7,-,N/A,,Clear,80,2012-11-10 04:55:00
11:15 PM,24.8,24.8,100,29.88,3.0,ENE,10.4,20.7,N/A,,Clear,70,2012-11-10 05:15:00
11:35 PM,24.8,24.8,100,29.86,3.0,ENE,6.9,-,N/A,,Clear,60,2012-11-10 05:35:00
11:55 PM,26.6,24.8,93,29.85,3.0,NE,8.1,-,N/A,,Clear,50,2012-11-10 05:55:00